Year,Month,Day,Hour,Minute,Value (Times are PST for temperature in C)
2017,08,11,00,00,19.70
2017,08,11,00,01,19.70
2017,08,11,00,02,19.70
2017,08,11,00,03,19.60
2017,08,11,00,04,19.60
2017,08,11,00,05,19.60
2017,08,11,00,06,19.60
2017,08,11,00,07,19.60
2017,08,11,00,08,19.60
2017,08,11,00,09,19.60
2017,08,11,00,10,19.60
2017,08,11,00,11,19.60
2017,08,11,00,12,19.50
2017,08,11,00,13,19.50
2017,08,11,00,14,19.50
2017,08,11,00,15,19.50
2017,08,11,00,16,19.40
2017,08,11,00,17,19.40
2017,08,11,00,18,19.40
2017,08,11,00,19,19.40
2017,08,11,00,20,19.30
2017,08,11,00,21,19.30
2017,08,11,00,22,19.30
2017,08,11,00,23,19.30
2017,08,11,00,24,19.30
2017,08,11,00,25,19.20
2017,08,11,00,26,19.20
2017,08,11,00,27,19.20
2017,08,11,00,28,19.20
2017,08,11,00,29,19.10
2017,08,11,00,30,19.10
2017,08,11,00,31,19.10
2017,08,11,00,32,19.10
2017,08,11,00,33,19.10
2017,08,11,00,34,19.00
2017,08,11,00,35,19.00
2017,08,11,00,36,19.00
2017,08,11,00,37,19.00
2017,08,11,00,38,18.90
2017,08,11,00,39,18.90
2017,08,11,00,40,18.90
2017,08,11,00,41,18.90
2017,08,11,00,42,18.90
2017,08,11,00,43,18.80
2017,08,11,00,44,18.80
2017,08,11,00,45,18.80
2017,08,11,00,46,18.80
2017,08,11,00,47,18.80
2017,08,11,00,48,18.80
2017,08,11,00,49,18.70
2017,08,11,00,50,18.70
2017,08,11,00,51,18.70
2017,08,11,00,52,18.70
2017,08,11,00,53,18.70
2017,08,11,00,54,18.70
2017,08,11,00,55,18.70
2017,08,11,00,56,18.70
2017,08,11,00,57,18.70
2017,08,11,00,58,18.60
2017,08,11,00,59,18.60
2017,08,11,01,00,18.60
2017,08,11,01,01,18.60
2017,08,11,01,02,18.60
2017,08,11,01,03,18.60
2017,08,11,01,04,18.60
2017,08,11,01,05,18.60
2017,08,11,01,06,18.60
2017,08,11,01,07,18.50
2017,08,11,01,08,18.50
2017,08,11,01,09,18.50
2017,08,11,01,10,18.40
2017,08,11,01,11,18.40
2017,08,11,01,12,18.40
2017,08,11,01,13,18.40
2017,08,11,01,14,18.40
2017,08,11,01,15,18.40
2017,08,11,01,16,18.30
2017,08,11,01,17,18.30
2017,08,11,01,18,18.30
2017,08,11,01,19,18.30
2017,08,11,01,20,18.30
2017,08,11,01,21,18.30
2017,08,11,01,22,18.30
2017,08,11,01,23,18.20
2017,08,11,01,24,18.20
2017,08,11,01,25,18.20
2017,08,11,01,26,18.20
2017,08,11,01,27,18.20
2017,08,11,01,28,18.20
2017,08,11,01,29,18.20
2017,08,11,01,30,18.20
2017,08,11,01,31,18.20
2017,08,11,01,32,18.20
2017,08,11,01,33,18.20
2017,08,11,01,34,18.20
2017,08,11,01,35,18.20
2017,08,11,01,36,18.20
2017,08,11,01,37,18.20
2017,08,11,01,38,18.20
2017,08,11,01,39,18.10
2017,08,11,01,40,18.10
2017,08,11,01,41,18.10
2017,08,11,01,42,18.10
2017,08,11,01,43,18.10
2017,08,11,01,44,18.00
2017,08,11,01,45,18.00
2017,08,11,01,46,17.90
2017,08,11,01,47,17.90
2017,08,11,01,48,17.90
2017,08,11,01,49,17.90
2017,08,11,01,50,17.90
2017,08,11,01,51,17.80
2017,08,11,01,52,17.80
2017,08,11,01,53,17.80
2017,08,11,01,54,17.80
2017,08,11,01,55,17.80
2017,08,11,01,56,17.80
2017,08,11,01,57,17.80
2017,08,11,01,58,17.80
2017,08,11,01,59,17.80
2017,08,11,02,00,17.80
2017,08,11,02,01,17.80
2017,08,11,02,02,17.80
2017,08,11,02,03,17.70
2017,08,11,02,04,17.70
2017,08,11,02,05,17.70
2017,08,11,02,06,17.70
2017,08,11,02,07,17.70
2017,08,11,02,08,17.70
2017,08,11,02,09,17.70
2017,08,11,02,10,17.70
2017,08,11,02,11,17.70
2017,08,11,02,12,17.70
2017,08,11,02,13,17.70
2017,08,11,02,14,17.70
2017,08,11,02,15,17.70
2017,08,11,02,16,17.70
2017,08,11,02,17,17.60
2017,08,11,02,18,17.60
2017,08,11,02,19,17.60
2017,08,11,02,20,17.60
2017,08,11,02,21,17.60
2017,08,11,02,22,17.60
2017,08,11,02,23,17.50
2017,08,11,02,24,17.50
2017,08,11,02,25,17.50
2017,08,11,02,26,17.50
2017,08,11,02,27,17.50
2017,08,11,02,28,17.40
2017,08,11,02,29,17.40
2017,08,11,02,30,17.40
2017,08,11,02,31,17.40
2017,08,11,02,32,17.40
2017,08,11,02,33,17.40
2017,08,11,02,34,17.40
2017,08,11,02,35,17.40
2017,08,11,02,36,17.30
2017,08,11,02,37,17.30
2017,08,11,02,38,17.30
2017,08,11,02,39,17.30
2017,08,11,02,40,17.30
2017,08,11,02,41,17.30
2017,08,11,02,42,17.30
2017,08,11,02,43,17.30
2017,08,11,02,44,17.30
2017,08,11,02,45,17.30
2017,08,11,02,46,17.30
2017,08,11,02,47,17.30
2017,08,11,02,48,17.30
2017,08,11,02,49,17.30
2017,08,11,02,50,17.20
2017,08,11,02,51,17.20
2017,08,11,02,52,17.20
2017,08,11,02,53,17.20
2017,08,11,02,54,17.20
2017,08,11,02,55,17.20
2017,08,11,02,56,17.20
2017,08,11,02,57,17.20
2017,08,11,02,58,17.20
2017,08,11,02,59,17.20
2017,08,11,03,00,17.20
2017,08,11,03,01,17.10
2017,08,11,03,02,17.10
2017,08,11,03,03,17.10
2017,08,11,03,04,17.10
2017,08,11,03,05,17.10
2017,08,11,03,06,17.10
2017,08,11,03,07,17.10
2017,08,11,03,08,17.10
2017,08,11,03,09,17.10
2017,08,11,03,10,17.10
2017,08,11,03,11,17.10
2017,08,11,03,12,17.10
2017,08,11,03,13,17.10
2017,08,11,03,14,17.10
2017,08,11,03,15,17.10
2017,08,11,03,16,17.10
2017,08,11,03,17,17.10
2017,08,11,03,18,17.10
2017,08,11,03,19,17.10
2017,08,11,03,20,17.10
2017,08,11,03,21,17.00
2017,08,11,03,22,17.00
2017,08,11,03,23,17.00
2017,08,11,03,24,17.00
2017,08,11,03,25,16.90
2017,08,11,03,26,16.90
2017,08,11,03,27,16.90
2017,08,11,03,28,16.90
2017,08,11,03,29,16.90
2017,08,11,03,30,16.90
2017,08,11,03,31,16.90
2017,08,11,03,32,16.90
2017,08,11,03,33,16.90
2017,08,11,03,34,16.90
2017,08,11,03,35,16.80
2017,08,11,03,36,16.80
2017,08,11,03,37,16.80
2017,08,11,03,38,16.80
2017,08,11,03,39,16.80
2017,08,11,03,40,16.80
2017,08,11,03,41,16.80
2017,08,11,03,42,16.90
2017,08,11,03,43,16.90
2017,08,11,03,44,16.90
2017,08,11,03,45,16.90
2017,08,11,03,46,16.90
2017,08,11,03,47,16.90
2017,08,11,03,48,16.90
2017,08,11,03,49,16.90
2017,08,11,03,50,16.90
2017,08,11,03,51,16.90
2017,08,11,03,52,16.90
2017,08,11,03,53,16.80
2017,08,11,03,54,16.80
2017,08,11,03,55,16.80
2017,08,11,03,56,16.80
2017,08,11,03,57,16.80
2017,08,11,03,58,16.80
2017,08,11,03,59,16.80
2017,08,11,04,00,16.80
2017,08,11,04,01,16.80
2017,08,11,04,02,16.70
2017,08,11,04,03,16.70
2017,08,11,04,04,16.70
2017,08,11,04,05,16.70
2017,08,11,04,06,16.70
2017,08,11,04,07,16.70
2017,08,11,04,08,16.70
2017,08,11,04,09,16.70
2017,08,11,04,10,16.70
2017,08,11,04,11,16.70
2017,08,11,04,12,16.70
2017,08,11,04,13,16.70
2017,08,11,04,14,16.70
2017,08,11,04,15,16.70
2017,08,11,04,16,16.70
2017,08,11,04,17,16.70
2017,08,11,04,18,16.70
2017,08,11,04,19,16.70
2017,08,11,04,20,16.60
2017,08,11,04,21,16.60
2017,08,11,04,22,16.60
2017,08,11,04,23,16.60
2017,08,11,04,24,16.60
2017,08,11,04,25,16.60
2017,08,11,04,26,16.60
2017,08,11,04,27,16.60
2017,08,11,04,28,16.60
2017,08,11,04,29,16.60
2017,08,11,04,30,16.60
2017,08,11,04,31,16.60
2017,08,11,04,32,16.60
2017,08,11,04,33,16.60
2017,08,11,04,34,16.60
2017,08,11,04,35,16.60
2017,08,11,04,36,16.50
2017,08,11,04,37,16.50
2017,08,11,04,38,16.50
2017,08,11,04,39,16.50
2017,08,11,04,40,16.50
2017,08,11,04,41,16.50
2017,08,11,04,42,16.50
2017,08,11,04,43,16.50
2017,08,11,04,44,16.50
2017,08,11,04,45,16.50
2017,08,11,04,46,16.50
2017,08,11,04,47,16.50
2017,08,11,04,48,16.50
2017,08,11,04,49,16.50
2017,08,11,04,50,16.50
2017,08,11,04,51,16.40
2017,08,11,04,52,16.40
2017,08,11,04,53,16.40
2017,08,11,04,54,16.40
2017,08,11,04,55,16.40
2017,08,11,04,56,16.40
2017,08,11,04,57,16.40
2017,08,11,04,58,16.40
2017,08,11,04,59,16.40
2017,08,11,05,00,16.40
2017,08,11,05,01,16.40
2017,08,11,05,02,16.40
2017,08,11,05,03,16.40
2017,08,11,05,04,16.40
2017,08,11,05,05,16.40
2017,08,11,05,06,16.40
2017,08,11,05,07,16.30
2017,08,11,05,08,16.30
2017,08,11,05,09,16.30
2017,08,11,05,10,16.40
2017,08,11,05,11,16.40
2017,08,11,05,12,16.40
2017,08,11,05,13,16.40
2017,08,11,05,14,16.40
2017,08,11,05,15,16.40
2017,08,11,05,16,16.40
2017,08,11,05,17,16.40
2017,08,11,05,18,16.40
2017,08,11,05,19,16.40
2017,08,11,05,20,16.40
2017,08,11,05,21,16.40
2017,08,11,05,22,16.40
2017,08,11,05,23,16.40
2017,08,11,05,24,16.40
2017,08,11,05,25,16.30
2017,08,11,05,26,16.30
2017,08,11,05,27,16.30
2017,08,11,05,28,16.30
2017,08,11,05,29,16.30
2017,08,11,05,30,16.30
2017,08,11,05,31,16.30
2017,08,11,05,32,16.30
2017,08,11,05,33,16.30
2017,08,11,05,34,16.30
2017,08,11,05,35,16.20
2017,08,11,05,36,16.20
2017,08,11,05,37,16.20
2017,08,11,05,38,16.20
2017,08,11,05,39,16.20
2017,08,11,05,40,16.20
2017,08,11,05,41,16.20
2017,08,11,05,42,16.20
2017,08,11,05,43,16.20
2017,08,11,05,44,16.20
2017,08,11,05,45,16.10
2017,08,11,05,46,16.10
2017,08,11,05,47,16.10
2017,08,11,05,48,16.10
2017,08,11,05,49,16.10
2017,08,11,05,50,16.10
2017,08,11,05,51,16.10
2017,08,11,05,52,16.10
2017,08,11,05,53,16.10
2017,08,11,05,54,16.10
2017,08,11,05,55,16.10
2017,08,11,05,56,16.10
2017,08,11,05,57,16.10
2017,08,11,05,58,16.00
2017,08,11,05,59,16.00
2017,08,11,06,00,16.00
2017,08,11,06,01,16.00
2017,08,11,06,02,16.00
2017,08,11,06,03,16.00
2017,08,11,06,04,16.00
2017,08,11,06,05,15.90
2017,08,11,06,06,15.90
2017,08,11,06,07,15.90
2017,08,11,06,08,15.90
2017,08,11,06,09,15.90
2017,08,11,06,10,15.90
2017,08,11,06,11,15.90
2017,08,11,06,12,15.90
2017,08,11,06,13,15.90
2017,08,11,06,14,15.90
2017,08,11,06,15,15.90
2017,08,11,06,16,15.90
2017,08,11,06,17,15.80
2017,08,11,06,18,15.80
2017,08,11,06,19,15.90
2017,08,11,06,20,15.90
2017,08,11,06,21,15.80
2017,08,11,06,22,15.80
2017,08,11,06,23,15.80
2017,08,11,06,24,15.80
2017,08,11,06,25,15.80
2017,08,11,06,26,15.90
2017,08,11,06,27,15.90
2017,08,11,06,28,15.80
2017,08,11,06,29,15.80
2017,08,11,06,30,15.80
2017,08,11,06,31,15.80
2017,08,11,06,32,15.80
2017,08,11,06,33,15.80
2017,08,11,06,34,15.80
2017,08,11,06,35,15.80
2017,08,11,06,36,15.80
2017,08,11,06,37,15.80
2017,08,11,06,38,15.80
2017,08,11,06,39,15.80
2017,08,11,06,40,15.80
2017,08,11,06,41,15.80
2017,08,11,06,42,15.80
2017,08,11,06,43,15.80
2017,08,11,06,44,15.80
2017,08,11,06,45,15.80
2017,08,11,06,46,15.80
2017,08,11,06,47,15.80
2017,08,11,06,48,15.80
2017,08,11,06,49,15.70
2017,08,11,06,50,15.80
2017,08,11,06,51,15.80
2017,08,11,06,52,15.80
2017,08,11,06,53,15.80
2017,08,11,06,54,15.80
2017,08,11,06,55,15.80
2017,08,11,06,56,15.80
2017,08,11,06,57,15.80
2017,08,11,06,58,15.80
2017,08,11,06,59,15.80
2017,08,11,07,00,15.80
2017,08,11,07,01,15.80
2017,08,11,07,02,15.80
2017,08,11,07,03,15.80
2017,08,11,07,04,15.80
2017,08,11,07,05,15.80
2017,08,11,07,06,15.80
2017,08,11,07,07,15.80
2017,08,11,07,08,15.90
2017,08,11,07,09,15.90
2017,08,11,07,10,15.90
2017,08,11,07,11,15.90
2017,08,11,07,12,15.90
2017,08,11,07,13,15.90
2017,08,11,07,14,15.90
2017,08,11,07,15,15.90
2017,08,11,07,16,15.90
2017,08,11,07,17,15.90
2017,08,11,07,18,15.90
2017,08,11,07,19,16.00
2017,08,11,07,20,16.00
2017,08,11,07,21,16.00
2017,08,11,07,22,16.00
2017,08,11,07,23,16.00
2017,08,11,07,24,16.00
2017,08,11,07,25,16.10
2017,08,11,07,26,16.10
2017,08,11,07,27,16.10
2017,08,11,07,28,16.10
2017,08,11,07,29,16.10
2017,08,11,07,30,16.10
2017,08,11,07,31,16.10
2017,08,11,07,32,16.10
2017,08,11,07,33,16.10
2017,08,11,07,34,16.20
2017,08,11,07,35,16.20
2017,08,11,07,36,16.20
2017,08,11,07,37,16.20
2017,08,11,07,38,16.20
2017,08,11,07,39,16.20
2017,08,11,07,40,16.20
2017,08,11,07,41,16.20
2017,08,11,07,42,16.20
2017,08,11,07,43,16.20
2017,08,11,07,44,16.20
2017,08,11,07,45,16.20
2017,08,11,07,46,16.20
2017,08,11,07,47,16.20
2017,08,11,07,48,16.20
2017,08,11,07,49,16.20
2017,08,11,07,50,16.30
2017,08,11,07,51,16.30
2017,08,11,07,52,16.30
2017,08,11,07,53,16.30
2017,08,11,07,54,16.30
2017,08,11,07,55,16.30
2017,08,11,07,56,16.30
2017,08,11,07,57,16.30
2017,08,11,07,58,16.30
2017,08,11,07,59,16.40
2017,08,11,08,00,16.40
2017,08,11,08,01,16.40
2017,08,11,08,02,16.40
2017,08,11,08,03,16.40
2017,08,11,08,04,16.40
2017,08,11,08,05,16.50
2017,08,11,08,06,16.50
2017,08,11,08,07,16.50
2017,08,11,08,08,16.50
2017,08,11,08,09,16.60
2017,08,11,08,10,16.60
2017,08,11,08,11,16.60
2017,08,11,08,12,16.60
2017,08,11,08,13,16.60
2017,08,11,08,14,16.60
2017,08,11,08,15,16.70
2017,08,11,08,16,16.70
2017,08,11,08,17,16.70
2017,08,11,08,18,16.70
2017,08,11,08,19,16.70
2017,08,11,08,20,16.70
2017,08,11,08,21,16.70
2017,08,11,08,22,16.80
2017,08,11,08,23,16.80
2017,08,11,08,24,16.80
2017,08,11,08,25,16.80
2017,08,11,08,26,16.80
2017,08,11,08,27,16.80
2017,08,11,08,28,16.90
2017,08,11,08,29,16.90
2017,08,11,08,30,16.90
2017,08,11,08,31,17.00
2017,08,11,08,32,17.00
2017,08,11,08,33,17.00
2017,08,11,08,34,17.10
2017,08,11,08,35,17.10
2017,08,11,08,36,17.10
2017,08,11,08,37,17.20
2017,08,11,08,38,17.20
2017,08,11,08,39,17.20
2017,08,11,08,40,17.20
2017,08,11,08,41,17.30
2017,08,11,08,42,17.30
2017,08,11,08,43,17.30
2017,08,11,08,44,17.30
2017,08,11,08,45,17.40
2017,08,11,08,46,17.40
2017,08,11,08,47,17.40
2017,08,11,08,48,17.40
2017,08,11,08,49,17.40
2017,08,11,08,50,17.50
2017,08,11,08,51,17.50
2017,08,11,08,52,17.50
2017,08,11,08,53,17.50
2017,08,11,08,54,17.60
2017,08,11,08,55,17.60
2017,08,11,08,56,17.60
2017,08,11,08,57,17.70
2017,08,11,08,58,17.70
2017,08,11,08,59,17.70
2017,08,11,09,00,17.80
2017,08,11,09,01,17.80
2017,08,11,09,02,17.90
2017,08,11,09,03,17.90
2017,08,11,09,04,17.90
2017,08,11,09,05,18.00
2017,08,11,09,06,18.00
2017,08,11,09,07,18.10
2017,08,11,09,08,18.10
2017,08,11,09,09,18.10
2017,08,11,09,10,18.20
2017,08,11,09,11,18.20
2017,08,11,09,12,18.20
2017,08,11,09,13,18.30
2017,08,11,09,14,18.40
2017,08,11,09,15,18.40
2017,08,11,09,16,18.50
2017,08,11,09,17,18.50
2017,08,11,09,18,18.60
2017,08,11,09,19,18.70
2017,08,11,09,20,18.70
2017,08,11,09,21,18.80
2017,08,11,09,22,18.90
2017,08,11,09,23,18.90
2017,08,11,09,24,19.00
2017,08,11,09,25,19.10
2017,08,11,09,26,19.20
2017,08,11,09,27,19.30
2017,08,11,09,28,19.40
2017,08,11,09,29,19.50
2017,08,11,09,30,19.50
2017,08,11,09,31,19.60
2017,08,11,09,32,19.70
2017,08,11,09,33,19.70
2017,08,11,09,34,19.80
2017,08,11,09,35,19.80
2017,08,11,09,36,19.90
2017,08,11,09,37,19.90
2017,08,11,09,38,20.00
2017,08,11,09,39,20.00
2017,08,11,09,40,20.10
2017,08,11,09,41,20.10
2017,08,11,09,42,20.20
2017,08,11,09,43,20.20
2017,08,11,09,44,20.30
2017,08,11,09,45,20.30
2017,08,11,09,46,20.30
2017,08,11,09,47,20.40
2017,08,11,09,48,20.40
2017,08,11,09,49,20.50
2017,08,11,09,50,20.50
2017,08,11,09,51,20.50
2017,08,11,09,52,20.60
2017,08,11,09,53,20.60
2017,08,11,09,54,20.60
2017,08,11,09,55,20.70
2017,08,11,09,56,20.70
2017,08,11,09,57,20.70
2017,08,11,09,58,20.80
2017,08,11,09,59,20.80
2017,08,11,10,00,20.80
2017,08,11,10,01,20.80
2017,08,11,10,02,20.90
2017,08,11,10,03,20.90
2017,08,11,10,04,20.90
2017,08,11,10,05,20.90
2017,08,11,10,06,21.00
2017,08,11,10,07,21.00
2017,08,11,10,08,21.10
2017,08,11,10,09,21.10
2017,08,11,10,10,21.10
2017,08,11,10,11,21.20
2017,08,11,10,12,21.20
2017,08,11,10,13,21.30
2017,08,11,10,14,21.30
2017,08,11,10,15,21.30
2017,08,11,10,16,21.40
2017,08,11,10,17,21.40
2017,08,11,10,18,21.40
2017,08,11,10,19,21.40
2017,08,11,10,20,21.50
2017,08,11,10,21,21.50
2017,08,11,10,22,21.60
2017,08,11,10,23,21.60
2017,08,11,10,24,21.70
2017,08,11,10,25,21.70
2017,08,11,10,26,21.70
2017,08,11,10,27,21.80
2017,08,11,10,28,21.80
2017,08,11,10,29,21.80
2017,08,11,10,30,21.90
2017,08,11,10,31,21.90
2017,08,11,10,32,21.90
2017,08,11,10,33,22.00
2017,08,11,10,34,22.00
2017,08,11,10,35,22.10
2017,08,11,10,36,22.10
2017,08,11,10,37,22.10
2017,08,11,10,38,22.20
2017,08,11,10,39,22.20
2017,08,11,10,40,22.30
2017,08,11,10,41,22.30
2017,08,11,10,42,22.40
2017,08,11,10,43,22.40
2017,08,11,10,44,22.50
2017,08,11,10,45,22.50
2017,08,11,10,46,22.60
2017,08,11,10,47,22.60
2017,08,11,10,48,22.70
2017,08,11,10,49,22.70
2017,08,11,10,50,22.70
2017,08,11,10,51,22.80
2017,08,11,10,52,22.80
2017,08,11,10,53,22.90
2017,08,11,10,54,22.90
2017,08,11,10,55,23.00
2017,08,11,10,56,23.00
2017,08,11,10,57,23.10
2017,08,11,10,58,23.10
2017,08,11,10,59,23.20
2017,08,11,11,00,23.20
2017,08,11,11,01,23.30
2017,08,11,11,02,23.30
2017,08,11,11,03,23.30
2017,08,11,11,04,23.40
2017,08,11,11,05,23.40
2017,08,11,11,06,23.40
2017,08,11,11,07,23.40
2017,08,11,11,08,23.50
2017,08,11,11,09,23.50
2017,08,11,11,10,23.60
2017,08,11,11,11,23.60
2017,08,11,11,12,23.60
2017,08,11,11,13,23.70
2017,08,11,11,14,23.70
2017,08,11,11,15,23.70
2017,08,11,11,16,23.80
2017,08,11,11,17,23.80
2017,08,11,11,18,23.80
2017,08,11,11,19,23.90
2017,08,11,11,20,23.90
2017,08,11,11,21,23.90
2017,08,11,11,22,23.90
2017,08,11,11,23,24.00
2017,08,11,11,24,24.00
2017,08,11,11,25,24.00
2017,08,11,11,26,24.10
2017,08,11,11,27,24.10
2017,08,11,11,28,24.10
2017,08,11,11,29,24.10
2017,08,11,11,30,24.10
2017,08,11,11,31,24.20
2017,08,11,11,32,24.20
2017,08,11,11,33,24.20
2017,08,11,11,34,24.20
2017,08,11,11,35,24.30
2017,08,11,11,36,24.30
2017,08,11,11,37,24.30
2017,08,11,11,38,24.30
2017,08,11,11,39,24.40
2017,08,11,11,40,24.40
2017,08,11,11,41,24.40
2017,08,11,11,42,24.40
2017,08,11,11,43,24.40
2017,08,11,11,44,24.40
2017,08,11,11,45,24.50
2017,08,11,11,46,24.50
2017,08,11,11,47,24.50
2017,08,11,11,48,24.50
2017,08,11,11,49,24.50
2017,08,11,11,50,24.50
2017,08,11,11,51,24.60
2017,08,11,11,52,24.60
2017,08,11,11,53,24.60
2017,08,11,11,54,24.60
2017,08,11,11,55,24.60
2017,08,11,11,56,24.60
2017,08,11,11,57,24.60
2017,08,11,11,58,24.70
2017,08,11,11,59,24.70
2017,08,11,12,00,24.70
2017,08,11,12,01,24.70
2017,08,11,12,02,24.80
2017,08,11,12,03,24.80
2017,08,11,12,04,24.80
2017,08,11,12,05,24.80
2017,08,11,12,06,24.80
2017,08,11,12,07,24.80
2017,08,11,12,08,24.80
2017,08,11,12,09,24.90
2017,08,11,12,10,24.90
2017,08,11,12,11,25.00
2017,08,11,12,12,25.00
2017,08,11,12,13,25.10
2017,08,11,12,14,25.20
2017,08,11,12,15,25.20
2017,08,11,12,16,25.20
2017,08,11,12,17,25.20
2017,08,11,12,18,25.30
2017,08,11,12,19,25.30
2017,08,11,12,20,25.20
2017,08,11,12,21,25.30
2017,08,11,12,22,25.30
2017,08,11,12,23,25.30
2017,08,11,12,24,25.30
2017,08,11,12,25,25.30
2017,08,11,12,26,25.40
2017,08,11,12,27,25.40
2017,08,11,12,28,25.50
2017,08,11,12,29,25.50
2017,08,11,12,30,25.50
2017,08,11,12,31,25.50
2017,08,11,12,32,25.60
2017,08,11,12,33,25.60
2017,08,11,12,34,25.60
2017,08,11,12,35,25.70
2017,08,11,12,36,25.70
2017,08,11,12,37,25.80
2017,08,11,12,38,25.80
2017,08,11,12,39,25.80
2017,08,11,12,40,25.80
2017,08,11,12,41,25.80
2017,08,11,12,42,25.80
2017,08,11,12,43,25.80
2017,08,11,12,44,25.80
2017,08,11,12,45,25.80
2017,08,11,12,46,25.80
2017,08,11,12,47,25.80
2017,08,11,12,48,25.80
2017,08,11,12,49,25.80
2017,08,11,12,50,25.80
2017,08,11,12,51,25.80
2017,08,11,12,52,25.80
2017,08,11,12,53,25.90
2017,08,11,12,54,25.90
2017,08,11,12,55,25.90
2017,08,11,12,56,25.90
2017,08,11,12,57,25.90
2017,08,11,12,58,26.00
2017,08,11,12,59,26.00
2017,08,11,13,00,26.10
2017,08,11,13,01,26.10
2017,08,11,13,02,26.10
2017,08,11,13,03,26.20
2017,08,11,13,04,26.20
2017,08,11,13,05,26.20
2017,08,11,13,06,26.20
2017,08,11,13,07,26.20
2017,08,11,13,08,26.20
2017,08,11,13,09,26.20
2017,08,11,13,10,26.20
2017,08,11,13,11,26.30
2017,08,11,13,12,26.30
2017,08,11,13,13,26.30
2017,08,11,13,14,26.30
2017,08,11,13,15,26.40
2017,08,11,13,16,26.40
2017,08,11,13,17,26.40
2017,08,11,13,18,26.40
2017,08,11,13,19,26.40
2017,08,11,13,20,26.40
2017,08,11,13,21,26.50
2017,08,11,13,22,26.50
2017,08,11,13,23,26.60
2017,08,11,13,24,26.60
2017,08,11,13,25,26.60
2017,08,11,13,26,26.70
2017,08,11,13,27,26.70
2017,08,11,13,28,26.70
2017,08,11,13,29,26.70
2017,08,11,13,30,26.70
2017,08,11,13,31,26.70
2017,08,11,13,32,26.70
2017,08,11,13,33,26.80
2017,08,11,13,34,26.80
2017,08,11,13,35,26.80
2017,08,11,13,36,26.80
2017,08,11,13,37,26.80
2017,08,11,13,38,26.80
2017,08,11,13,39,26.80
2017,08,11,13,40,26.80
2017,08,11,13,41,26.80
2017,08,11,13,42,26.80
2017,08,11,13,43,26.80
2017,08,11,13,44,26.80
2017,08,11,13,45,26.80
2017,08,11,13,46,26.80
2017,08,11,13,47,26.80
2017,08,11,13,48,26.80
2017,08,11,13,49,26.80
2017,08,11,13,50,26.80
2017,08,11,13,51,26.80
2017,08,11,13,52,26.80
2017,08,11,13,53,26.90
2017,08,11,13,54,26.90
2017,08,11,13,55,27.00
2017,08,11,13,56,27.00
2017,08,11,13,57,27.00
2017,08,11,13,58,27.10
2017,08,11,13,59,27.10
2017,08,11,14,00,27.10
2017,08,11,14,01,27.10
2017,08,11,14,02,27.20
2017,08,11,14,03,27.20
2017,08,11,14,04,27.10
2017,08,11,14,05,27.10
2017,08,11,14,06,27.10
2017,08,11,14,07,27.10
2017,08,11,14,08,27.00
2017,08,11,14,09,27.00
2017,08,11,14,10,27.00
2017,08,11,14,11,26.90
2017,08,11,14,12,26.90
2017,08,11,14,13,26.90
2017,08,11,14,14,26.90
2017,08,11,14,15,26.90
2017,08,11,14,16,26.80
2017,08,11,14,17,26.80
2017,08,11,14,18,26.80
2017,08,11,14,19,26.80
2017,08,11,14,20,26.80
2017,08,11,14,21,26.80
2017,08,11,14,22,26.80
2017,08,11,14,23,26.90
2017,08,11,14,24,26.90
2017,08,11,14,25,26.90
2017,08,11,14,26,27.00
2017,08,11,14,27,27.10
2017,08,11,14,28,27.10
2017,08,11,14,29,27.10
2017,08,11,14,30,27.10
2017,08,11,14,31,27.00
2017,08,11,14,32,26.90
2017,08,11,14,33,26.90
2017,08,11,14,34,26.80
2017,08,11,14,35,26.80
2017,08,11,14,36,26.70
2017,08,11,14,37,26.60
2017,08,11,14,38,26.60
2017,08,11,14,39,26.60
2017,08,11,14,40,26.60
2017,08,11,14,41,26.60
2017,08,11,14,42,26.60
2017,08,11,14,43,26.50
2017,08,11,14,44,26.50
2017,08,11,14,45,26.50
2017,08,11,14,46,26.50
2017,08,11,14,47,26.60
2017,08,11,14,48,26.60
2017,08,11,14,49,26.70
2017,08,11,14,50,26.70
2017,08,11,14,51,26.70
2017,08,11,14,52,26.80
2017,08,11,14,53,26.80
2017,08,11,14,54,26.90
2017,08,11,14,55,26.90
2017,08,11,14,56,27.00
2017,08,11,14,57,27.00
2017,08,11,14,58,27.00
2017,08,11,14,59,27.10
2017,08,11,15,00,27.10
2017,08,11,15,01,27.10
2017,08,11,15,02,27.10
2017,08,11,15,03,27.10
2017,08,11,15,04,27.10
2017,08,11,15,05,27.10
2017,08,11,15,06,27.10
2017,08,11,15,07,27.10
2017,08,11,15,08,27.20
2017,08,11,15,09,27.20
2017,08,11,15,10,27.20
2017,08,11,15,11,27.30
2017,08,11,15,12,27.30
2017,08,11,15,13,27.30
2017,08,11,15,14,27.30
2017,08,11,15,15,27.30
2017,08,11,15,16,27.30
2017,08,11,15,17,27.40
2017,08,11,15,18,27.40
2017,08,11,15,19,27.50
2017,08,11,15,20,27.50
2017,08,11,15,21,27.60
2017,08,11,15,22,27.60
2017,08,11,15,23,27.60
2017,08,11,15,24,27.60
2017,08,11,15,25,27.60
2017,08,11,15,26,27.60
2017,08,11,15,27,27.60
2017,08,11,15,28,27.60
2017,08,11,15,29,27.60
2017,08,11,15,30,27.60
2017,08,11,15,31,27.60
2017,08,11,15,32,27.50
2017,08,11,15,33,27.40
2017,08,11,15,34,27.40
2017,08,11,15,35,27.30
2017,08,11,15,36,27.30
2017,08,11,15,37,27.20
2017,08,11,15,38,27.20
2017,08,11,15,39,27.20
2017,08,11,15,40,27.20
2017,08,11,15,41,27.20
2017,08,11,15,42,27.20
2017,08,11,15,43,27.20
2017,08,11,15,44,27.20
2017,08,11,15,45,27.20
2017,08,11,15,46,27.20
2017,08,11,15,47,27.20
2017,08,11,15,48,27.20
2017,08,11,15,49,27.30
2017,08,11,15,50,27.40
2017,08,11,15,51,27.50
2017,08,11,15,52,27.60
2017,08,11,15,53,27.70
2017,08,11,15,54,27.80
2017,08,11,15,55,27.90
2017,08,11,15,56,28.00
2017,08,11,15,57,28.10
2017,08,11,15,58,28.20
2017,08,11,15,59,28.30
2017,08,11,16,00,28.30
2017,08,11,16,01,28.30
2017,08,11,16,02,28.40
2017,08,11,16,03,28.40
2017,08,11,16,04,28.40
2017,08,11,16,05,28.30
2017,08,11,16,06,28.20
2017,08,11,16,07,28.20
2017,08,11,16,08,28.10
2017,08,11,16,09,28.00
2017,08,11,16,10,27.90
2017,08,11,16,11,27.80
2017,08,11,16,12,27.80
2017,08,11,16,13,27.80
2017,08,11,16,14,27.80
2017,08,11,16,15,27.80
2017,08,11,16,16,27.80
2017,08,11,16,17,27.80
2017,08,11,16,18,27.80
2017,08,11,16,19,27.80
2017,08,11,16,20,27.90
2017,08,11,16,21,28.00
2017,08,11,16,22,28.10
2017,08,11,16,23,28.10
2017,08,11,16,24,28.20
2017,08,11,16,25,28.20
2017,08,11,16,26,28.20
2017,08,11,16,27,28.20
2017,08,11,16,28,28.20
2017,08,11,16,29,28.20
2017,08,11,16,30,28.20
2017,08,11,16,31,28.20
2017,08,11,16,32,28.10
2017,08,11,16,33,28.10
2017,08,11,16,34,28.00
2017,08,11,16,35,28.00
2017,08,11,16,36,27.90
2017,08,11,16,37,27.90
2017,08,11,16,38,27.90
2017,08,11,16,39,27.90
2017,08,11,16,40,27.90
2017,08,11,16,41,28.00
2017,08,11,16,42,28.00
2017,08,11,16,43,28.00
2017,08,11,16,44,28.10
2017,08,11,16,45,28.10
2017,08,11,16,46,28.10
2017,08,11,16,47,28.10
2017,08,11,16,48,28.10
2017,08,11,16,49,28.00
2017,08,11,16,50,27.90
2017,08,11,16,51,27.90
2017,08,11,16,52,27.90
2017,08,11,16,53,27.90
2017,08,11,16,54,27.90
2017,08,11,16,55,28.00
2017,08,11,16,56,28.00
2017,08,11,16,57,28.00
2017,08,11,16,58,28.10
2017,08,11,16,59,28.00
2017,08,11,17,00,28.10
2017,08,11,17,01,28.10
2017,08,11,17,02,28.10
2017,08,11,17,03,28.10
2017,08,11,17,04,28.10
2017,08,11,17,05,28.00
2017,08,11,17,06,28.00
2017,08,11,17,07,27.90
2017,08,11,17,08,27.80
2017,08,11,17,09,27.80
2017,08,11,17,10,27.70
2017,08,11,17,11,27.60
2017,08,11,17,12,27.50
2017,08,11,17,13,27.40
2017,08,11,17,14,27.40
2017,08,11,17,15,27.30
2017,08,11,17,16,27.20
2017,08,11,17,17,27.20
2017,08,11,17,18,27.10
2017,08,11,17,19,27.10